Weather History for KSLC - November, 2011

Change the Weather History Date:

Wednesday, November 2, 2011

  Actual Average Record
Temperature  
Mean Temperature 38 °F 46 °F  
Max Temperature 48 °F 57 °F 73 °F (1965)
Min Temperature 27 °F 36 °F 14 °F (1951)
Degree Days  
Heating Degree Days 27 19  
Month to date heating degree days 51 37  
Since 1 July heating degree days 392 505  
Cooling Degree Days 0 0  
Month to date cooling degree days 0 0  
Year to date cooling degree days 1162 1160  
Moisture  
Dew Point 22 °F    
Average Humidity 57    
Maximum Humidity 85    
Minimum Humidity 28    
Precipitation  
Precipitation 0.00 in 0.05 in 1.00 in (1992)
Month to date precipitation 0.31 0.10  
Year to date precipitation 17.80 13.34  
Snow  
Snow 0.00 in 0.10 in 5.50 in (1957)
Month to date snowfall 0.0 0.2  
Since 1 July snowfall T 1.6  
Snow Depth 0.00 in    
Sea Level Pressure  
Sea Level Pressure 30.45 in    
Wind  
Wind Speed 5 mph (WNW)    
Max Wind Speed 13 mph    
Max Gust Speed 47 mph    
Visibility 10 miles    
Events      
T = Trace of Precipitation, MM = Missing Value Source: NWS Daily Summary

Daily Weather History Graph

Daily Weather History Graph

Search for Another Location

Airport or City:

Trip Planner

Search our weather history database for the weather conditions in past years. The results will help you decide how hot, cold, wet, or windy it might be!

Date:

Astronomy

Nov. 02, 2011 Rise Set
Actual Time 7:59 AM MDT 6:23 PM MDT
Civil Twilight 7:30 AM MDT 6:51 PM MDT
Nautical Twilight 6:58 AM MDT 7:23 PM MDT
Astronomical Twilight 6:26 AM MDT 7:55 PM MDT
Moon 2:20 PM MDT (11/2) 12:10 AM MDT (11/2)
Length of Visible Light 11h 20m
Length of Day
10h 23m
Waxing Crescent, 51% of the Moon is Illuminated
Nov 2
Waxing Crescent
Nov 10
Full
Nov 18
Last Quarter
Nov 24
New
Dec 2
First Quarter

Hourly Weather History & Observations

Time (MDT) Temp. Windchill Dew Point Humidity Pressure Visibility Wind Dir Wind Speed Gust Speed Precip Events Conditions
12:53 AM 32.0 °F 25.6 °F 24.1 °F 73% 30.37 in 10.0 mi NNE 6.9 mph - N/A   Partly Cloudy
1:53 AM 32.0 °F 24.2 °F 25.0 °F 75% 30.38 in 10.0 mi North 9.2 mph - N/A   Partly Cloudy
2:53 AM 28.0 °F 20.0 °F 23.0 °F 81% 30.37 in 10.0 mi NNW 8.1 mph - N/A   Partly Cloudy
3:53 AM 32.0 °F 23.0 °F 24.1 °F 73% 30.39 in 10.0 mi NNW 11.5 mph - N/A   Clear
4:53 AM 28.9 °F 25.2 °F 21.9 °F 75% 30.43 in 10.0 mi Variable 3.5 mph - N/A   Clear
5:53 AM 28.0 °F 24.2 °F 21.9 °F 78% 30.44 in 10.0 mi West 3.5 mph - N/A   Clear
6:53 AM 28.9 °F - 21.9 °F 75% 30.48 in 10.0 mi Calm Calm - N/A   Clear
7:53 AM 28.0 °F - 21.0 °F 75% 30.50 in 10.0 mi Calm Calm - N/A   Partly Cloudy
8:53 AM 30.0 °F - 21.9 °F 72% 30.53 in 10.0 mi Calm Calm - N/A   Partly Cloudy
9:53 AM 35.1 °F 32.2 °F 24.1 °F 64% 30.51 in 10.0 mi SW 3.5 mph - N/A   Scattered Clouds
10:53 AM 37.4 °F 30.8 °F 21.2 °F 52% 30.50 in 10.0 mi South 9.2 mph - N/A   Scattered Clouds
11:53 AM 39.9 °F 34.5 °F 21.0 °F 47% 30.53 in 10.0 mi SSE 8.1 mph - N/A   Scattered Clouds
12:53 PM 41.0 °F 39.0 °F 19.9 °F 43% 30.51 in 10.0 mi Variable 3.5 mph - N/A   Scattered Clouds
1:53 PM 43.0 °F 39.5 °F 19.0 °F 38% 30.48 in 10.0 mi Variable 5.8 mph - N/A   Scattered Clouds
2:53 PM 45.0 °F 42.6 °F 19.0 °F 36% 30.48 in 10.0 mi South 4.6 mph - N/A   Scattered Clouds
3:53 PM 46.0 °F - 16.0 °F 30% 30.45 in 10.0 mi Calm Calm - N/A   Scattered Clouds
4:53 PM 45.0 °F 39.7 °F 23.0 °F 42% 30.46 in 10.0 mi North 10.4 mph - N/A   Partly Cloudy
5:53 PM 42.1 °F 37.7 °F 23.0 °F 47% 30.45 in 10.0 mi North 6.9 mph - N/A   Partly Cloudy
6:53 PM 39.0 °F 35.7 °F 24.1 °F 55% 30.45 in 10.0 mi NNW 4.6 mph - N/A   Partly Cloudy
7:53 PM 37.0 °F - 23.0 °F 57% 30.45 in 10.0 mi Calm Calm - N/A   Partly Cloudy
8:53 PM 36.0 °F - 25.0 °F 64% 30.43 in 10.0 mi Calm Calm - N/A   Partly Cloudy
9:53 PM 33.1 °F 30.0 °F 25.0 °F 72% 30.40 in 10.0 mi WSW 3.5 mph - N/A   Partly Cloudy
10:53 PM 33.1 °F 28.7 °F 24.1 °F 70% 30.38 in 10.0 mi ESE 4.6 mph - N/A   Partly Cloudy
11:53 PM 33.1 °F 26.9 °F 23.0 °F 66% 30.32 in 10.0 mi South 6.9 mph - N/A   Partly Cloudy